Regional Weather Roundup
Issued by NWS Sterling, VA

Home | Current Version | Previous Version | Graphics & Text | Print | Product List | Glossary On
Versions: 1 2 3 4 5 6 7 8 9 10 11 12 13 14 15 16 17 18 19 20 21 22 23 24 25 26 27 28 29 30 31 32 33 34 35 36 37 38 39 40 41 42 43 44 45 46 47 48 49 50
000
ASUS41 KLWX 250811
RWRLWX

REGIONAL WEATHER ROUNDUP
NATIONAL WEATHER SERVICE BALTIMORE MD/WASHINGTON DC
300 AM EST SUN FEB 25 2018

Note: "FAIR" indicates few or no clouds below 12,000 feet
with no significant weather and/or obstructions to visibility.
 TC=TEMPERATURE CELSIUS

 * =Non NWS site. Station does not report precipitation (e.g. rain,
    snow, etc.), thunder, or fog.

DCZ001-MDZ009-015-VAZ040>042-051-053>054-250900-
WASHINGTON METRO

CITY           SKY/WX    TMP DP  RH WIND       PRES   REMARKS
WASHINGTON NAT CLOUDY    49  47  93 SE6       30.05F
DULLES         CLOUDY    47  47 100 SE3       30.04F FOG
ANDREWS AFB    CLOUDY    46  46 100 E5        30.03F
FT BELVOIR     CLOUDY    48  46  95 CALM      30.04F
QUANTICO       CLOUDY    49  48  97 SE6       30.05F
COLLEGE PARK*  CLOUDY    47  45  93 CALM      30.04F
LEESBURG*      CLOUDY    45  45 100 CALM      30.05F FOG
MANASSAS*      CLOUDY    47  47 100 CALM      30.04F FOG
GAITHERSBURG*  LGT RAIN  46  45  96 E5        30.04F FOG

$$

MDZ006>007-011-014-250900-
BALTIMORE METRO

CITY           SKY/WX    TMP DP  RH WIND       PRES   REMARKS
BWI AIRPORT    CLOUDY    46  45  96 E8        30.04F FOG
MD SCIENCE CTR   N/A     49  46  90 MISG      30.06F
MARTIN STATE   CLOUDY    46  46 100 NE5       30.07F
ANNAPOLIS      CLOUDY    49  47  93 E6        30.04F
FORT MEADE*    CLOUDY    45  45 100 E5        30.07F

$$

MDZ012-015-019>023-250900-
MARYLAND EASTERN SHORE

CITY           SKY/WX    TMP DP  RH WIND       PRES   REMARKS
OCEAN CITY     FOG       46  46 100 NE6       30.06F VSB 1/2
SALISBURY      FOG       48  48 100 E7        30.04F VSB 1/2
BAY BRIDGE AP* CLOUDY    46  45  93 E5        30.04F FOG
EASTON*        CLOUDY    47  46  93 SE6       30.07F FOG

$$

MDZ017>025-250900-
SOUTHERN MARYLAND

CITY           SKY/WX    TMP DP  RH WIND       PRES   REMARKS
PATUXENT RIVER CLOUDY    47  47 100 SE7       30.02F FOG
ST INIGOES     FOG       48  48 100 E5        30.02F VSB 3/4
LEONARDTOWN*   CLOUDY    46  45  93 SE3       30.04F

$$

MDZ003>005-250900-
NORTH CENTRAL MARYLAND

CITY           SKY/WX    TMP DP  RH WIND       PRES   REMARKS
FREDERICK*     LGT RAIN  46  46 100 CALM      30.07F
HAGERSTOWN APT LGT RAIN  46  45  96 NW3       30.03F VSB 1/2
WESTMINSTER*   LGT RAIN  46  46 100 SE7       30.04F

$$

MDZ501>502-250900-
WESTERN MARYLAND

CITY           SKY/WX    TMP DP  RH WIND       PRES   REMARKS
OAKLAND*       CLOUDY    37  37 100 SE14G21   29.92F VSB 1/2 WCI  29
CUMBERLAND*    CLOUDY    45  45 100 CALM      30.06F

$$

VAZ025>031-250900-
SHENANDOAH VALLEY

CITY           SKY/WX    TMP DP  RH WIND       PRES   REMARKS
WINCHESTER*    CLOUDY    43  43 100 CALM      30.04F FOG
FRONT ROYAL*   CLOUDY    45  45 100 CALM      30.01F
LURAY*         CLOUDY    46  46 100 CALM      30.01F FOG
NEW MARKET*    CLOUDY    45  43  95 CALM      30.01F
STAUNTON*      CLOUDY    46  45  97 CALM      30.03F FOG
WAYNESBORO*    CLOUDY    46  46  99 E5        30.00F

$$

WVZ021-048>050-054>055-250900-
EASTERN WEST VIRGINIA PANHANDLE

CITY           SKY/WX    TMP DP  RH WIND       PRES   REMARKS
MARTINSBURG    LGT RAIN  45  45 100 CALM      30.02F FOG
PETERSBURG*    RAIN      45  44  97 CALM      30.00F

$$

VAZ036>039-050-250900-
CENTRAL FOOTHILLS

CITY           SKY/WX    TMP DP  RH WIND       PRES   REMARKS
CHARLOTTESVILL CLOUDY    49  48  97 CALM      30.03F FOG
CULPEPER*      CLOUDY    49  47  95 CALM      30.05F FOG
ORANGE*        CLOUDY    46  46 100 CALM      30.04S FOG
GORDONSVILLE*  CLOUDY    48  48 100 CALM      30.03F FOG
WARRENTON*     CLOUDY    49  46  92 CALM      30.03F FOG

$$

VAZ055>057-250900-
NORTH AND CENTRAL PIEDMONT

CITY           SKY/WX    TMP DP  RH WIND       PRES   REMARKS
FREDERICKSBRG* FOG       48  48 100 E5        30.02F VSB 3/4
STAFFORD*      CLOUDY    48  48 100 E5        30.07F FOG

$$

NCZ024-NYZ072-PAZ021-071-VAZ022-071-250900-
OTHER REGIONAL OBSERVATIONS

CITY           SKY/WX    TMP DP  RH WIND       PRES   REMARKS
NEW YORK CITY  CLOUDY    43  37  79 E8        30.17F
PHILADELPHIA   LGT RAIN  45  43  93 E12       30.10F
PITTSBURGH     LGT RAIN  51  50  96 SE10      29.77F
ROANOKE        MOCLDY    58  55  90 SE8       29.98F
RICHMOND       CLOUDY    54  53  97 SE3       30.01F FOG
RALEIGH        FAIR      64  58  80 SW12      30.05F

$$

ANZ530>537-250900-
MARINE OBSERVATIONS

STATION/POSITION TIME  TEMP    WIND        PRES
                       AIR SEA DIR/SP/G
                 (UTC) (F)     (DEG/KT/KT) (MB)
THOMAS PT LIGHT  0800   46 42  110/  5/  6   N/A
BALT KEY BRIDGE  0748   46      80/  5/  6 1017.8F
COVE POINT       0748   46     140/  5/  8 1017.6F
LEWISETTA        0748   47 49  120/  6/  6 1016.8F
SOLOMONS ISLAND  0748   45 44  100/  5/  6 1016.5F
PINEY POINT      0742          130/  6/  7   N/A

$$




USA.gov is the U.S. government's official web portal to all federal, state and local government web resources and services.